User: anonymous   Login
Location: Castiglione Fibocchi
(43.5333°N, 11.7667°E)
Time: 02:33:11
(UTC+00:00)
Language:

Cosmos 494 Rocket - Orbit

View from above orbital plane
View from above orbital plane
View from above satellite
View from above satellite

Ground track
Ground track

The orbit data is extracted from the following two-line orbital elements,

1  6061U 72043B   20302.60277744 +.00000082 +00000-0 +34076-4 0  9997
2  6061 074.0573 069.3376 0020992 252.4215 107.4648 14.40596562535092
Epoch (UTC): 28 October 2020 14:27:59
Eccentricity: 0.0020992
inclination: 74.0573°
perigee height: 741 km
apogee height: 771 km
right ascension of ascending node: 69.3376°
argument of perigee: 252.4215°
revolutions per day: 14.40596562
mean anomaly at epoch: 107.4648°
orbit number at epoch: 53509

The dashed part of the orbit path shows where the satellite is in the earth's shadow,  

DLR